Terminal Aerodrome Forecast
Issued by NWS

Home | Current Version | Previous Version | Text Only | Print | Product List | Glossary On
Versions: 1 2 3 4 5 6 7 8 9 10 11 12 13 14 15 16 17 18 19
172
FTUS42 KTBW 272136 AAB
TAFLAL
TAF AMD
KLAL 272136Z 2722/2818 23007KT 3SM TSRA BKN040CB OVC100
      TEMPO 2722/2724 6SM -TSRA SCT040CB
     FM280000 VRB05KT P6SM BKN050 BKN250
     FM280200 VRB03KT P6SM FEW050 BKN250
     FM281200 VRB02KT P6SM FEW030 SCT250=

USA.gov is the U.S. government's official web portal to all federal, state and local government web resources and services.